GW2074 Weather Reports


Display with metric or nautical units.
time (UTC)temp
F
wind
direction
speed
MPH
gust
MPH
rain 1hr
in
rain 24hr
in
rain mn
in
humidity
%
barometer
mb
20260502215422 0 82 12.0 13.0 0.00 0.00 0.12
20260502213556 0 81 13.0 9.0 0.00 0.00 0.12
20260502212446 0 81 13.0 15.0 0.00 0.00 0.12
20260502211337 72 81 14.0 22.0 0.00 0.00 0.12 43 1016.1
20260502210657 0 81 15.0 15.0 0.00 0.00 0.12
20260502205803 0 81 16.0 14.0 0.00 0.00 0.12
20260502204238 0 81 15.0 17.0 0.00 0.00 0.12
20260502203343 0 81 20.0 9.0 0.00 0.00 0.12
20260502202233 0 81 13.0 16.0 0.00 0.00 0.12
20260502201122 0 81 16.0 14.0 0.00 0.00 0.12
20260502195728 0 80 11.0 23.0 0.00 0.00 0.12
20260502194549 71 81 12.0 33.0 0.00 0.00 0.12 50 1016.8
20260502193909 71 81 20.0 33.0 0.00 0.00 0.12 48 1016.8
20260502193229 0 81 14.0 12.0 0.00 0.00 0.12
20260502191620 0 81 16.0 18.0 0.00 0.00 0.12
20260502190724 71 81 18.0 27.0 0.00 0.00 0.12 56 1016.9
20260502190044 70 81 17.0 27.0 0.00 0.00 0.12 60 1016.9
20260502185404 70 81 18.0 32.0 0.00 0.00 0.12 60 1016.8
20260502184724 70 82 18.0 32.0 0.00 0.00 0.12 58 1016.8
20260502184044 71 81 14.0 30.0 0.00 0.00 0.12 58 1016.7
20260502183404 71 81 16.0 27.0 0.00 0.00 0.12 60 1016.7
20260502182724 71 81 14.0 27.0 0.00 0.00 0.12 61 1016.6
20260502182044 70 81 17.0 27.0 0.00 0.00 0.12 58 1016.8
20260502181404 70 82 12.0 29.0 0.00 0.00 0.12 60 1016.8
20260502180724 0 83 11.0 29.0 0.00 0.00 0.12
20260502162825 67 82 15.0 26.0 0.00 0.00 0.12 65 1017.9
20260502162145 67 82 13.0 28.0 0.00 0.00 0.12 65 1017.8
20260502161505 0 82 11.0 14.0 0.00 0.00 0.12
20260502160611 0 83 12.0 7.0 0.00 0.00 0.12
20260502152117 63 83 12.0 19.0 0.00 0.00 0.12 77 1017.6
20260502151437 0 83 15.0 13.0 0.00 0.00 0.12
20260502150155 0 83 11.0 13.0 0.00 0.00 0.12
20260502130405 0 83 12.0 8.0 0.00 0.00 0.12
20260502123406 55 83 10.0 15.0 0.00 0.00 0.12 91 1015.8
20260502122726 55 83 9.0 16.0 0.00 0.00 0.12 91 1015.8
20260502122046 0 83 8.0 9.0 0.00 0.00 0.12
20260502120936 54 83 9.0 18.0 0.00 0.00 0.12 92 1015.7
20260502120256 54 83 11.0 19.0 0.00 0.00 0.12 92 1015.4
20260502115616 54 83 13.0 19.0 0.00 0.00 0.12 92 1015.3
20260502114936 0 83 13.0 11.0 0.00 0.00 0.12
20260502114008 53 83 12.0 22.0 0.00 0.00 0.12 93 1015.0
20260502113328 53 84 8.0 19.0 0.00 0.00 0.12 94 1015.0
20260502112648 53 83 10.0 16.0 0.00 0.00 0.12 94 1015.1
20260502112008 53 83 8.0 18.0 0.00 0.00 0.12 94 1015.0
20260502111328 0 84 9.0 15.0 0.00 0.00 0.12
20260502110403 0 83 13.0 13.0 0.00 0.00 0.12
20260502104356 0 83 16.0 13.0 0.00 0.00 0.12
20260502103502 0 84 16.0 19.0 0.00 0.00 0.12
20260502102253 53 83 14.0 26.0 0.00 0.00 0.12 96 1014.4
20260502100149 0 84 17.0 21.0 0.00 0.00 0.12
20260502090824 53 84 14.0 23.0 0.00 0.00 0.12 96 1013.7
20260502090144 53 84 15.0 25.0 0.00 0.00 0.12 96 1013.5
20260502071009 0 84 9.0 7.0 0.00 0.00 0.11
20260502070113 53 84 9.0 13.0 0.00 0.00 0.11 96 1013.8
20260502065433 0 84 7.0 5.0 0.00 0.00 0.11
20260502064538 53 84 9.0 22.0 0.00 0.00 0.11 96 1013.9
20260502063858 53 84 14.0 28.0 0.00 0.00 0.11 96 1013.0
20260502063218 53 84 18.0 28.0 0.00 0.00 0.11 96 1013.1
20260502062538 0 84 17.0 22.0 0.00 0.00 0.11
20260502060750 0 84 15.0 9.0 0.00 0.00 0.10
20260502055856 0 85 14.0 14.0 0.00 0.00 0.05
20260502054750 54 83 7.0 21.0 0.00 0.00 0.00 97 1014.8
20260502054110 54 85 9.0 15.0 0.00 0.00 0.00 97 1014.9
20260502053430 0 85 8.0 11.0 0.00 0.00 0.00
20260502052248 0 84 9.0 6.0 0.00 0.00 0.00
20260502050901 0 85 13.0 8.0 0.00 0.00 0.00
20260502050000 55 84 14.0 21.0 0.00 0.00 2.32 97 1013.1
20260502045320 0 85 8.0 12.0 0.00 0.00 2.32
20260502043954 55 85 8.0 18.0 0.00 0.00 2.32 97 1013.7
20260502043314 0 85 10.0 12.0 0.00 0.00 2.31
20260502042421 0 84 14.0 15.0 0.00 0.00 2.29
20260502041527 0 85 9.0 5.0 0.00 0.00 2.25
20260502040418 56 85 15.0 25.0 0.00 0.00 2.25 97 1012.9
20260502035738 56 84 14.0 20.0 0.00 0.00 2.25 97 1012.7
20260502035058 0 85 15.0 16.0 0.00 0.00 2.24
20260502034204 0 84 15.0 15.0 0.00 0.00 2.18
20260502033105 56 84 13.0 25.0 0.00 0.00 2.12 97 1012.9
20260502032425 0 84 17.0 24.0 0.00 0.00 2.11
20260502030955 57 85 13.0 21.0 0.00 0.00 2.11 96 1012.9
20260502030315 58 85 12.0 21.0 0.00 0.00 2.11 97 1013.1
20260502025635 0 84 10.0 11.0 0.00 0.00 2.11
20260502024745 0 85 11.0 12.0 0.00 0.00 2.09
20260502023846 0 84 11.0 14.0 0.00 0.00 2.09
20260502022953 0 84 12.0 19.0 0.00 0.00 2.09
20260502022059 0 84 12.0 14.0 0.00 0.00 2.09
20260502021204 58 85 14.0 22.0 0.00 0.00 2.09 97 1012.1
20260502020524 0 84 8.0 12.0 0.00 0.00 2.09
20260502014836 57 85 8.0 16.0 0.00 0.00 2.09 97 1011.9
20260502014156 0 85 9.0 10.0 0.00 0.00 2.09
20260502013046 0 85 5.0 4.0 0.00 0.00 2.09
20260502010614 0 84 13.0 14.0 0.00 0.00 2.09
20260502005505 55 84 9.0 22.0 0.00 0.00 2.09 96 1011.1
20260502004825 0 84 9.0 7.0 0.00 0.00 2.09
20260502003714 56 84 13.0 21.0 0.00 0.00 2.09 96 1011.9
20260502003034 0 84 14.0 19.0 0.00 0.00 2.09
20260502002141 0 85 14.0 13.0 0.00 0.00 2.07
20260502001245 56 84 12.0 20.0 0.00 0.00 2.07 96 1012.1
20260502000605 0 85 11.0 14.0 0.00 0.00 2.07
20260501235459 57 84 14.0 21.0 0.00 0.00 2.07 96 1011.8
20260501234819 57 84 12.0 23.0 0.00 0.00 2.07 96 1011.6
20260501234139 0 84 12.0 16.0 0.00 0.00 2.06
20260501233212 57 84 11.0 20.0 0.00 0.00 2.06 96 1011.5
20260501232532 0 85 14.0 11.0 0.00 0.00 2.06
20260501231638 57 84 15.0 21.0 0.00 0.00 2.06 96 1011.7
20260501230958 0 85 15.0 15.0 0.00 0.00 2.05
20260501230556 0 84 14.0 14.0 0.00 0.00 2.05
20260501225525 0 85 18.0 16.0 0.00 0.00 2.04
20260501224349 0 85 16.0 16.0 0.00 0.00 2.00
20260501223104 0 85 16.0 20.0 0.00 0.00 2.00
20260501222138 58 84 14.0 23.0 0.00 0.00 2.00 97 1011.0
20260501221458 0 85 16.0 21.0 0.00 0.00 2.00
20260501220603 58 85 18.0 31.0 0.00 0.00 2.00 96 1010.9